Voltar ao catálogo

STARLINK-34666

AtivoComunicaçõesVLEO
NORAD 64794·PAYLOAD·🇺🇸 United States

Lançado Jul 16, 2025 de Vandenberg Space Force Base

Loading…

Próximas Passagens (próximas 24 horas)

TLE

AtualizadoSource: CelesTrak SupGP

Época: Sep 14, 2026, 22:49 UTC

1 64794C 25150E   26257.95118056 -.00051321  00000+0 -43005-2 0  2574
2 64794  70.0028  17.4464 0003065 270.0011  20.2894 14.98359957    16

Acompanhe STARLINK-34666 em tempo real com AllMySat

Download on the App Store